Location: Carrières
(48.9495°N, 2.0407°E)
Time: 00:01:44
(UTC+00:00)

Cosmos 1606 Rocket - Pass Details

Date: 27 June 2024
Orbit: 599 x 628 km, 82.5° (Epoch: 15 July)

Event Time Altitude Azimuth Distance (km) Brightness Sun altitude
Rises 23:09:41 0° 5° (N) 2,910 8.5 -17.1°
Reaches altitude 10° 23:13:06 10° 33° (NNE) 1,991 6.8 -17.2°
Maximum altitude 23:15:14 13° 62° (ENE) 1,776 6.1 -17.2°
Drops below altitude 10° 23:17:20 10° 91° (E) 1,975 6.0 -17.3°
Enters shadow 23:18:39 - 105° (ESE) 2,268 6.2 -17.3°
